Flag for Germany Weather past 2 weeks in Würzburg, Bavaria, Germany

Now
68 °F

Passing clouds.


Feels Like: 68 °F
Forecast: 61 / 95 °F
Wind: 3 mph from East

Location: Wuerzburg

Current Time: Aug 5, 2015 at 10:32:01 AM

Latest Report: Aug 5, 2015 at 10:00 AM


Visibility: 28 mi

Pressure: 30.15 "Hg

Humidity: 58%

Dew point: 53 °F

Location of WürzburgLocation

Historic Weather in Würzburg — Graph

°F

Würzburg temperature yesterday

Maximum temperature yesterday: 90 °F (at 2:00 PM)
Minimum temperature yesterday: 65 °F (at 7:00 AM)
Average temperature yesterday: 74 °F

Past Weeks' High & Low Weather Summary

 TemperatureHumidityPressure
High94 °F (Jul 22, 2:00 PM)93% (Jul 25, 3:00 AM)30.16 "Hg (Jul 25, 3:00 AM)
Low49 °F (Jul 30, 5:00 AM)21% (Aug 2, 5:00 PM)29.68 "Hg (Jul 25, 5:00 AM)
Average69 °F57%29.93 "Hg
* Reported Jul 21 9:00 AM — Aug 5 9:00 AM, Würzburg, Weather by CustomWeather, © 2015

Note: Actual official high and low records may vary slightly from our data, if they occured in-between our weather recording intervals... More about our weather records

Advertising

Würzburg weather history for previous 24 hours

 ConditionsComfort  
Time TempWeatherWind HumidityBarometerVisibility
9:00 AM
Wed, Aug 5
65 °FPassing clouds.1 mph67%30.15 "Hg25 mi
8:00 AM59 °FPassing clouds.1 mph84%30.16 "Hg19 mi
7:00 AM56 °FPassing clouds.1 mph89%30.16 "Hg22 mi
6:00 AM56 °FPassing clouds.2 mph91%30.15 "Hg22 mi
5:00 AM57 °FClear.1 mph89%30.15 "Hg25 mi
4:00 AM58 °FClear.1 mph90%30.15 "Hg31 mi
3:00 AM60 °FClear.1 mph84%30.14 "Hg31 mi
2:00 AM61 °FPassing clouds.2 mph81%30.14 "Hg31 mi
1:00 AM63 °FPassing clouds.1 mph77%30.13 "Hg31 mi
11:00 PM
Tue, Aug 4
67 °FPassing clouds.3 mph79%30.09 "Hg31 mi
10:00 PM69 °FPassing clouds.5 mph77%30.07 "Hg31 mi
9:00 PM71 °FPassing clouds.3 mph70%30.03 "Hg31 mi
8:00 PM72 °FPartly sunny.3 mph70%30.01 "Hg31 mi
7:00 PM71 °FPartly sunny.3 mph71%30.01 "Hg34 mi
6:00 PM71 °FOvercast.5 mph71%30.02 "Hg34 mi
5:00 PM68 °FOvercast.6 mph80%30.01 "Hg34 mi
4:00 PM76 °FLight rain. Overcast.13 mph53%29.97 "Hg9 mi
3:00 PM86 °FOvercast.12 mph36%29.90 "Hg34 mi
2:00 PM90 °FPartly sunny.10 mph32%29.87 "Hg28 mi
1:00 PM88 °FScattered clouds.9 mph31%29.88 "Hg28 mi
12:00 PM90 °FScattered clouds.5 mph31%29.87 "Hg28 mi
11:00 AM86 °FPassing clouds.5 mph37%29.89 "Hg28 mi
10:00 AM80 °FPassing clouds.2 mph47%29.91 "Hg22 mi
Weather by CustomWeather, © 2015

See weather overviewHow to use our weather pages